Location: Praha
(50.0830°N, 14.4670°E)
Time: 16:16:13
(UTC+02:00)

ISS - Pass Details

Date: 11 October 2019
Orbit: 411 x 421 km, 51.6° (Epoch: 18 October)

Event Time Altitude Azimuth Distance (km) Brightness Sun altitude
Rises 18:55:09 0° 280° (W) 2,347 2.0 -6.4°
Reaches altitude 10° 18:58:11 10° 250° (WSW) 1,479 0.5 -6.9°
Maximum altitude 18:59:39 13° 223° (SW) 1,334 -0.5 -7.2°
Drops below altitude 10° 19:01:08 10° 197° (SSW) 1,474 -0.7 -7.4°
Sets 19:04:09 0° 166° (SSE) 2,329 -0.1 -7.9°
